• Join FlightAware (Why Join?)
  • Login
  • US Flag 
09:42AM EST


 

Airport Tracker/Info


-or-


 

Live Flight TrackerFlight Track Log ✈ KAP46 ✈ 04-Aug-2013 ✈ KMSS - KALB

Flight Track Log - Related Links

Times and Time Zones

All times are in EDT time to prevent confusion due to time zone crossing. See the KAP46 flight status page for this flight to view local times or setup timezone preferences in your user account.

Time Position Orientation Groundspeed Altitude Reporting Facility
EDT Latitude Longitude Course Direction KTS MPH feet Rate Location/Type
05:25PM 44.6214 -74.7531 167° South 156 180 7,100  Level Boston Center
05:26PM 44.5758 -74.7425 171° South 168 193 8,000 787 Climbing Boston Center
05:27PM 44.5347 -74.7144 154° Southeast 168 193 8,700 655 Climbing Boston Center
05:28PM 44.4917 -74.6839 153° Southeast 167 192 9,300 655 Climbing Boston Center
05:29PM 44.4503 -74.6647 162° South 167 192 10,000 694 Climbing Boston Center
05:30PM 44.7867 -74.7622 167° South  Level FlightAware Approximate
05:30PM 44.4069 -74.6458 163° South 167 192 10,700  Level Boston Center
05:31PM 44.3614 -74.6294 166° South 167 192 11,000 198 Climbing Boston Center
05:32PM 44.3097 -74.6044 161° South 174 200 11,100 50 Climbing Boston Center
05:33PM 44.2581 -74.5794 161° South 189 217 11,100 -50 Level Boston Center
05:34PM 44.2067 -74.5486 157° South 194 223 11,000 -51 Descending Boston Center
05:35PM 44.1569 -74.5208 158° South 194 223 11,000 51 Level Boston Center
05:36PM 44.1075 -74.4986 162° South 194 223 11,100 -49 Climbing Boston Center
05:37PM 44.0556 -74.4853 170° South 189 217 10,900 -50 Descending Boston Center
05:38PM 44.0061 -74.4578 158° South 189 217 11,000 50 Climbing Boston Center
05:39PM 43.9567 -74.4300 158° South 189 217 11,000  Level Boston Center
05:40PM 43.9069 -74.4111 165° South 189 217 11,000 -203 Level Boston Center
05:41PM 43.8572 -74.3808 156° South 189 217 10,600 -450 Descending Boston Center
05:42PM 43.8058 -74.3417 151° Southeast 199 229 10,100 -590 Descending Boston Center
05:43PM 43.7503 -74.3053 155° Southeast 206 237 9,400 -610 Descending Boston Center
05:44PM 43.6986 -74.2722 155° Southeast 211 243 8,900 -610 Descending Boston Center
05:45PM 43.6450 -74.2392 156° South 211 243 8,200 -584 Descending Boston Center
05:46PM 43.5953 -74.2175 162° South 203 234 7,800 -492 Descending Boston Center
05:47PM 43.5375 -74.1872 159° South 206 237 7,200 -331 Descending Boston Center
05:48PM 43.4858 -74.1628 161° South 206 237 7,100 -168 Descending Boston Center
05:49PM 43.4422 -74.1386 158° South 190 219 6,900 -99 Descending Boston Center
05:50PM 43.3822 -74.1083 160° South 178 205 6,900 -45 Level Boston Center
05:51PM 43.3369 -74.0814 157° South 186 214 6,800 -98 Descending Boston Center
05:51PM 43.3369 -74.0814 157° South 184 212 6,800 -207 Level Boston Center
05:52PM 43.2892 -74.0544 158° South 184 212 6,600 -365 Descending Boston Center
05:53PM 43.2397 -74.0333 163° South 203 234 6,100 -508 Descending Boston Center
05:54PM 43.1900 -74.0092 160° South 196 226 5,600 -336 Descending Boston Center
05:55PM 43.1319 -73.9792 159° South 194 223 5,400 -288 Descending Boston Center
05:56PM 43.0844 -73.9467 153° Southeast 194 223 5,000 -226 Descending Boston Center
05:57PM 43.0472 -73.9231 155° Southeast 190 219 5,000  Level Boston Center
05:58PM 43.0039 -73.8853 147° Southeast 175 201 5,000 -283 Level Boston Center
05:59PM 42.9522 -73.8469 151° Southeast 208 239 4,400 -595 Descending Boston Center
06:00PM 42.9028 -73.8119 153° Southeast 208 239 3,800 -467 Descending Boston Center
06:00PM 42.8861 -73.8003 153° Southeast 202 232 3,700 -590 Descending Boston Center
06:01PM 42.8511 -73.7739 151° Southeast 208 239 3,200 -847 Descending Boston Center
06:02PM 42.8142 -73.7278 138° Southeast 201 231 2,500 -730 Descending Boston Center
06:03PM 42.7706 -73.7072 161° South 144 166 1,800 -629 Descending Boston Center
06:04PM 42.7514 -73.7378 230° Southwest 95 109 1,200 -605 Descending Boston Center
06:05PM 42.7489 -73.7803 265° West 92 106 500 -636 Descending Boston Center
06:07PM 42.7333 -73.8000 170° South  Level FlightAware Approximate